Vinton, IA

6:34 PM CDT on April 24, 2018 (GMT -0500)
Vinton-Veterans Memorial

Weather History for KVTI - November, 2013

Change the Weather History Date:

Saturday, November 16, 2013

  Actual Average Record
Temperature  
Mean Temperature 50 °F -  
Max Temperature 60 °F 47 °F 72 °F (1953)
Min Temperature 40 °F 27 °F 4 °F (1959)
Degree Days  
Heating Degree Days 15    
Moisture  
Dew Point 47 °F    
Average Humidity 83    
Maximum Humidity 92    
Minimum Humidity 72    
Precipitation  
Precipitation 0.02 in - - ()
Sea Level Pressure  
Sea Level Pressure 29.53 in    
Wind  
Wind Speed 14 mph (South)    
Max Wind Speed 21 mph    
Max Gust Speed 31 mph    
Visibility 9 miles    
Events Rain    
Averages and records for this station are not official NWS values.
T = Trace of Precipitation, MM = Missing Value Source: NWS Daily Summary

Daily Weather History Graph

Daily Weather History Graph

Search for Another Location

Airport or City:

Astronomy

Nov. 16, 2013 Rise Set
Actual Time 7:00 AM CST 4:45 PM CST
Civil Twilight 6:29 AM CST 5:15 PM CST
Nautical Twilight 5:55 AM CST 5:49 PM CST
Astronomical Twilight 5:22 AM CST 6:22 PM CST
Moon 4:21 PM CST (11/16) 5:55 AM CST (11/16)
Length of Visible Light 10h 45m
Length of Day
9h 45m
Waxing Gibbous, 99% of the Moon is Illuminated
Nov 16
Waxing Gibbous
Nov 17
Full
Nov 25
Last Quarter
Dec 2
New
Dec 9
First Quarter

Hourly Weather History & Observations

Time (CST) Temp. Windchill Dew Point Humidity Pressure Visibility Wind Dir Wind Speed Gust Speed Precip Events Conditions
12:15 AM 40.6 °F 34.8 °F 32.2 °F 72% 29.78 in 10.0 mi South 9.2 mph - N/A   Clear
12:35 AM 40.6 °F 36.0 °F 32.4 °F 72% 29.78 in 10.0 mi South 6.9 mph - N/A   Clear
12:55 AM 40.6 °F 34.3 °F 32.5 °F 73% 29.77 in 10.0 mi South 10.4 mph - N/A   Clear
1:15 AM 40.6 °F 34.8 °F 32.9 °F 74% 29.77 in 10.0 mi South 9.2 mph - N/A   Clear
1:35 AM 40.6 °F 33.8 °F 33.3 °F 75% 29.75 in 10.0 mi SSE 11.5 mph - N/A   Clear
1:55 AM 40.6 °F 34.8 °F 33.3 °F 75% 29.75 in 10.0 mi SSE 9.2 mph - N/A   Clear
2:15 AM 40.6 °F 34.3 °F 33.3 °F 75% 29.75 in 10.0 mi South 10.4 mph - N/A   Clear
2:35 AM 40.5 °F 33.6 °F 33.8 °F 77% 29.75 in 10.0 mi South 11.5 mph 16.1 mph N/A   Clear
2:55 AM 40.6 °F 33.4 °F 34.7 °F 79% 29.74 in 10.0 mi South 12.7 mph 18.4 mph N/A   Clear
3:15 AM 40.6 °F 32.3 °F 34.7 °F 79% 29.73 in 10.0 mi South 16.1 mph 19.6 mph N/A   Clear
3:35 AM 40.6 °F 32.0 °F 35.6 °F 82% 29.71 in 10.0 mi SSE 17.3 mph - N/A   Clear
3:55 AM 41.0 °F 32.8 °F 36.1 °F 83% 29.70 in 10.0 mi SSE 16.1 mph 20.7 mph N/A   Scattered Clouds
4:15 AM 41.9 °F 34.3 °F 37.4 °F 84% 29.70 in 10.0 mi South 15.0 mph - N/A   Overcast
4:35 AM 42.8 °F 34.3 °F 38.3 °F 84% 29.68 in 10.0 mi SSE 19.6 mph 24.2 mph N/A   Overcast
4:55 AM 43.0 °F 35.1 °F 38.7 °F 85% 29.67 in 7.0 mi SSE 17.3 mph - N/A   Overcast
5:15 AM 43.2 °F 35.3 °F 39.2 °F 86% 29.66 in 7.0 mi South 17.3 mph 20.7 mph N/A   Overcast
5:35 AM 43.7 °F 36.0 °F 40.1 °F 87% 29.65 in 7.0 mi South 17.3 mph 21.9 mph N/A   Overcast
5:55 AM 44.6 °F 37.8 °F 40.6 °F 86% 29.64 in 7.0 mi South 15.0 mph 23.0 mph N/A   Overcast
6:15 AM 46.2 °F 40.1 °F 42.4 °F 87% 29.64 in 7.0 mi South 13.8 mph 21.9 mph N/A   Overcast
6:35 AM 46.9 °F - 43.2 °F 87% 29.64 in 7.0 mi South 16.1 mph - N/A   Overcast
6:55 AM 46.9 °F - 43.2 °F 87% 29.65 in 7.0 mi South 12.7 mph - N/A   Overcast
7:15 AM 46.9 °F - 43.2 °F 87% 29.64 in 7.0 mi SSE 15.0 mph 20.7 mph N/A   Overcast
7:35 AM 46.9 °F - 43.0 °F 86% 29.63 in 7.0 mi SSE 15.0 mph 20.7 mph N/A   Overcast
7:55 AM 49.5 °F - 45.5 °F 86% 29.61 in 10.0 mi SSE 13.8 mph - N/A   Overcast
8:15 AM 49.5 °F - 45.5 °F 86% 29.61 in 5.0 mi SSE 16.1 mph - N/A   Overcast
8:35 AM 49.5 °F - 46.0 °F 88% 29.60 in 3.0 mi SSE 15.0 mph - N/A   Overcast
8:55 AM 49.5 °F - 46.8 °F 90% 29.59 in 2.0 mi SSE 16.1 mph 20.7 mph N/A   Overcast
9:15 AM 49.5 °F - 46.9 °F 91% 29.58 in 1.8 mi SSE 17.3 mph 21.9 mph N/A   Overcast
9:35 AM 49.5 °F - 47.3 °F 92% 29.57 in 2.0 mi SSE 18.4 mph 24.2 mph N/A   Overcast
9:55 AM 49.5 °F - 47.3 °F 92% 29.55 in 1.8 mi SSE 16.1 mph 23.0 mph N/A Rain Light Rain
10:15 AM 49.5 °F - 47.3 °F 92% 29.55 in 1.8 mi SSE 17.3 mph - N/A   Overcast
10:35 AM 49.5 °F - 47.3 °F 92% 29.55 in 3.0 mi SSE 16.1 mph 20.7 mph N/A   Overcast
10:55 AM 49.5 °F - 47.3 °F 92% 29.54 in 5.0 mi SSE 16.1 mph 21.9 mph N/A   Overcast
11:15 AM 52.0 °F - 48.9 °F 89% 29.53 in 7.0 mi SSE 12.7 mph 20.7 mph N/A   Overcast
11:35 AM 52.0 °F - 48.4 °F 88% 29.51 in 7.0 mi SSE 18.4 mph 23.0 mph N/A   Overcast
11:55 AM 54.5 °F - 50.4 °F 86% 29.49 in 7.0 mi SSE 18.4 mph 25.3 mph N/A   Overcast
12:15 PM 54.5 °F - 50.0 °F 85% 29.47 in 10.0 mi SSE 16.1 mph 23.0 mph N/A   Overcast
12:35 PM 54.7 °F - 49.5 °F 83% 29.45 in 10.0 mi SSE 17.3 mph 24.2 mph N/A   Mostly Cloudy
12:55 PM 57.2 °F - 50.9 °F 79% 29.45 in 10.0 mi South 17.3 mph 21.9 mph N/A   Overcast
1:15 PM 57.2 °F - 50.2 °F 77% 29.44 in 10.0 mi South 15.0 mph 20.7 mph N/A   Overcast
1:35 PM 57.2 °F - 51.1 °F 80% 29.41 in 7.0 mi South 18.4 mph 21.9 mph 0.01 in Rain Light Rain
1:55 PM 57.2 °F - 52.0 °F 83% 29.40 in 10.0 mi SSE 12.7 mph 19.6 mph 0.01 in Rain Light Rain
2:15 PM 57.2 °F - 52.2 °F 83% 29.39 in 10.0 mi South 10.4 mph - N/A Rain Rain
2:35 PM 57.4 °F - 52.9 °F 85% 29.38 in 10.0 mi South 12.7 mph - 0.01 in Rain Light Rain
2:55 PM 59.5 °F - 54.5 °F 83% 29.37 in 10.0 mi South 17.3 mph 23.0 mph 0.01 in   Mostly Cloudy
3:15 PM 59.5 °F - 54.5 °F 83% 29.36 in 10.0 mi South 15.0 mph 24.2 mph N/A   Mostly Cloudy
3:35 PM 59.5 °F - 54.1 °F 82% 29.35 in 10.0 mi South 17.3 mph 27.6 mph N/A   Mostly Cloudy
3:55 PM 60.8 °F - 54.5 °F 80% 29.34 in 10.0 mi South 19.6 mph 28.8 mph N/A   Scattered Clouds
4:15 PM 60.8 °F - 54.3 °F 79% 29.36 in 10.0 mi South 18.4 mph 27.6 mph N/A   Scattered Clouds
4:35 PM 60.8 °F - 54.1 °F 79% 29.36 in 10.0 mi South 18.4 mph 24.2 mph N/A   Scattered Clouds
4:55 PM 60.8 °F - 54.1 °F 79% 29.36 in 10.0 mi South 20.7 mph 31.1 mph N/A   Scattered Clouds
5:15 PM 59.5 °F - 53.2 °F 80% 29.37 in 10.0 mi South 17.3 mph 28.8 mph N/A   Scattered Clouds
5:35 PM 59.5 °F - 53.2 °F 80% 29.38 in 10.0 mi South 16.1 mph 25.3 mph N/A   Clear
5:55 PM 60.4 °F - 53.8 °F 79% 29.39 in 10.0 mi South 17.3 mph 25.3 mph N/A   Clear
6:15 PM 60.1 °F - 53.4 °F 79% 29.40 in 10.0 mi South 13.8 mph 23.0 mph N/A   Scattered Clouds
6:35 PM 60.6 °F - 54.0 °F 79% 29.41 in 10.0 mi South 18.4 mph 23.0 mph N/A   Scattered Clouds
6:55 PM 59.5 °F - 53.6 °F 81% 29.41 in 10.0 mi South 18.4 mph 23.0 mph N/A   Scattered Clouds
7:15 PM 59.5 °F - 53.6 °F 81% 29.41 in 10.0 mi SSW 15.0 mph 23.0 mph N/A   Clear
7:35 PM 59.5 °F - 53.8 °F 81% 29.42 in 10.0 mi South 16.1 mph 21.9 mph N/A   Clear
7:55 PM 59.5 °F - 53.8 °F 81% 29.42 in 10.0 mi South 17.3 mph 23.0 mph N/A   Clear
8:15 PM 59.5 °F - 54.5 °F 83% 29.43 in 10.0 mi SSW 17.3 mph 24.2 mph N/A   Clear
8:35 PM 59.5 °F - 54.5 °F 83% 29.43 in 10.0 mi SSW 16.1 mph 25.3 mph N/A   Clear
8:55 PM 59.5 °F - 54.5 °F 83% 29.43 in 10.0 mi South 17.3 mph - N/A   Clear
9:15 PM 59.5 °F - 54.9 °F 84% 29.44 in 10.0 mi SSW 12.7 mph - N/A   Clear
9:35 PM 57.2 °F - 52.7 °F 85% 29.43 in 10.0 mi SSW 12.7 mph 18.4 mph N/A   Clear
9:55 PM 57.2 °F - 52.9 °F 85% 29.43 in 10.0 mi SSW 16.1 mph - N/A   Clear
10:15 PM 57.2 °F - 53.1 °F 86% 29.43 in 10.0 mi SSW 10.4 mph - N/A   Clear
10:35 PM 57.2 °F - 53.6 °F 88% 29.44 in 10.0 mi West 5.8 mph - N/A   Clear
10:55 PM 54.5 °F - 51.4 °F 89% 29.45 in 10.0 mi SW 4.6 mph - N/A   Mostly Cloudy
11:15 PM 54.5 °F - 51.6 °F 90% 29.45 in 10.0 mi South 6.9 mph - N/A   Scattered Clouds
11:35 PM 55.8 °F - 52.9 °F 90% 29.45 in 10.0 mi South 6.9 mph - N/A   Mostly Cloudy
11:55 PM 57.2 °F - 54.0 °F 89% 29.45 in 10.0 mi South 6.9 mph - N/A   Overcast